Simultaneous Nadir Overpasses (SNOs) Predictions

Prediction of SNOs between METOP-A and TERRA Satellite Orbit:

Table of predicted SNOs for the next 14.0 days since TLE Epoch: 3/3/2018
Index Date (METOP-A) Time (METOP-A) Lat,Lon (METOP-A) SZA (METOP-A ) Date (TERRA) Time (TERRA) Lat,Lon (TERRA) SZA (TERRA ) Distance(km) Time Diff (sec)
1 03/05/2018 14:42:00 -81.28,-179.26 90.98 03/05/2018 14:43:14 -80.98,-178.45 91.11 36.26 74
2 03/05/2018 15:32:20 81.40, -3.68 89.93 03/05/2018 15:32:21 81.40, -3.75 89.92 1.22 1
3 03/05/2018 16:23:00 -81.40, 163.82 90.07 03/05/2018 16:21:48 -81.40, 163.89 90.09 1.14 72
4 03/08/2018 10:15:57 -81.40,-104.98 91.17 03/08/2018 10:17:11 -81.39,-105.13 91.16 2.73 74
5 03/08/2018 11:06:37 81.40, 62.73 88.86 03/08/2018 11:06:36 81.41, 62.92 88.89 3.37 1
6 03/08/2018 11:57:17 -81.40,-129.74 91.14 03/08/2018 11:56:04 -81.39,-129.82 91.18 1.62 73
7 03/11/2018 05:50:14 -81.40, -38.56 92.25 03/11/2018 05:51:26 -81.40, -38.55 92.22 0.14 72
8 03/11/2018 06:40:54 81.40, 129.11 87.78 03/11/2018 06:40:52 81.40, 129.10 87.77 0.20 2
9 03/11/2018 07:31:18 -81.37, -56.98 91.51 03/11/2018 07:30:04 -81.64, -57.27 91.42 29.62 74
10 03/14/2018 01:24:30 -81.40, 27.85 93.34 03/14/2018 01:25:40 -81.40, 27.94 93.29 1.65 70
11 03/14/2018 02:15:10 81.40,-164.53 86.69 03/14/2018 02:15:06 81.40,-164.42 86.70 1.90 4
12 03/16/2018 20:58:47 -81.40, 94.23 94.42 03/16/2018 20:59:55 -81.40, 94.34 94.38 1.89 68




NCC Satellite Simultaneous Nadir Overpasses (SNOs) Prediction Service
